Hettinger, ND

10:40 PM MDT on March 23, 2017 (GMT -0600)
Hettinger Municipal

Weather History for KHEI - November, 2012

Change the Weather History Date:

Friday, November 9, 2012

  Actual Average Record
Temperature  
Mean Temperature 28 °F -  
Max Temperature 30 °F 44 °F 74 °F (2016)
Min Temperature 26 °F 20 °F 0 °F (2008)
Degree Days  
Heating Degree Days 37 33  
Month to date heating degree days 240 277  
Since 1 July heating degree days 1228 1332  
Moisture  
Dew Point 27 °F    
Average Humidity 94    
Maximum Humidity 100    
Minimum Humidity 85    
Precipitation  
Precipitation T in 0.04 in 0.33 in (1998)
Month to date precipitation 0.01 0.33  
Year to date precipitation 14.53 15.52  
Sea Level Pressure  
Sea Level Pressure 29.90 in    
Wind  
Wind Speed 17 mph (East)    
Max Wind Speed 24 mph    
Max Gust Speed 32 mph    
Visibility 2 miles    
Events Rain    
T = Trace of Precipitation, MM = Missing Value Source: NWS Daily Summary

Daily Weather History Graph

Daily Weather History Graph

Search for Another Location

Airport or City:

Trip Planner

Search our weather history database for the weather conditions in past years. The results will help you decide how hot, cold, wet, or windy it might be!

Date:

Astronomy

Nov. 09, 2012 Rise Set
Actual Time 6:43 AM MST 4:25 PM MST
Civil Twilight 6:11 AM MST 4:57 PM MST
Nautical Twilight 5:35 AM MST 5:32 PM MST
Astronomical Twilight 5:00 AM MST 6:07 PM MST
Moon 1:29 AM MST (11/9) 1:52 PM MST (11/9)
Length of Visible Light 10h 45m
Length of Day
9h 41m
Waning Crescent, 22% of the Moon is Illuminated
Nov 9
Waning Crescent
Nov 13
New
Nov 20
First Quarter
Nov 28
Full
Dec 6
Last Quarter

Hourly Weather History & Observations

Time (MST) Temp. Windchill Dew Point Humidity Pressure Visibility Wind Dir Wind Speed Gust Speed Precip Events Conditions
12:39 AM 30.2 °F 17.8 °F 28.4 °F 93% 29.98 in 2.5 mi East 19.6 mph - N/A   Overcast
12:53 AM 30.0 °F 17.5 °F 28.0 °F 92% 30.05 in 2.0 mi East 19.6 mph 25.3 mph N/A   Overcast
1:23 AM 28.4 °F 15.4 °F 26.6 °F 93% 29.98 in 3.0 mi East 19.6 mph 29.9 mph N/A   Overcast
1:31 AM 28.4 °F 15.8 °F 26.6 °F 93% 29.97 in 2.5 mi East 18.4 mph 27.6 mph N/A   Overcast
1:41 AM 28.4 °F 15.4 °F 26.6 °F 93% 29.98 in 3.0 mi East 19.6 mph 25.3 mph N/A   Overcast
1:51 AM 28.4 °F 15.4 °F 26.6 °F 93% 29.98 in 2.5 mi East 19.6 mph 25.3 mph N/A   Overcast
1:53 AM 28.9 °F 16.1 °F 27.0 °F 92% 30.05 in 2.5 mi East 19.6 mph - N/A   Overcast
2:48 AM 28.4 °F 15.1 °F 26.6 °F 93% 29.96 in 2.5 mi East 20.7 mph 27.6 mph N/A   Overcast
2:53 AM 28.0 °F 14.6 °F 26.1 °F 92% 30.04 in 2.5 mi East 20.7 mph 28.8 mph N/A   Overcast
3:15 AM 28.4 °F 15.1 °F 26.6 °F 93% 29.95 in 1.2 mi East 20.7 mph 28.8 mph N/A   Overcast
3:53 AM 27.0 °F 13.5 °F 26.1 °F 96% 30.03 in 1.0 mi East 19.6 mph 29.9 mph N/A   Mist
4:25 AM 26.6 °F 12.7 °F 26.6 °F 100% 29.95 in 2.0 mi East 20.7 mph 25.3 mph 0.00 in Rain Light Freezing Rain
4:43 AM 26.6 °F 12.7 °F 24.8 °F 93% 29.94 in 1.5 mi East 20.7 mph 26.5 mph 0.00 in Rain Light Freezing Rain
4:53 AM 27.0 °F 13.5 °F 25.0 °F 92% 30.01 in 1.0 mi East 19.6 mph 27.6 mph 0.00 in Rain Light Freezing Rain
5:10 AM 26.6 °F 14.3 °F 24.8 °F 93% 29.93 in 3.0 mi East 16.1 mph 26.5 mph 0.00 in Rain Light Freezing Rain
5:53 AM 26.1 °F 11.6 °F 24.1 °F 92% 30.00 in 3.0 mi East 21.9 mph 27.6 mph 0.00 in Rain Light Freezing Rain
6:53 AM 26.1 °F 13.1 °F 24.1 °F 92% 29.99 in 4.0 mi East 17.3 mph 28.8 mph 0.00 in Rain Light Freezing Rain
7:19 AM 26.6 °F 12.7 °F 24.8 °F 93% 29.90 in 2.0 mi East 20.7 mph 27.6 mph 0.00 in Rain Light Freezing Rain
7:53 AM 26.1 °F 13.1 °F 24.1 °F 92% 29.99 in 2.0 mi East 17.3 mph - 0.00 in Rain Light Freezing Rain
8:26 AM 26.6 °F 13.4 °F 24.8 °F 93% 29.90 in 1.8 mi East 18.4 mph 24.2 mph 0.00 in Rain Light Freezing Rain
8:53 AM 27.0 °F 15.2 °F 25.0 °F 92% 29.99 in 1.2 mi East 15.0 mph 26.5 mph 0.00 in Rain Light Freezing Rain
9:23 AM 28.4 °F 15.8 °F 24.8 °F 86% 29.89 in 1.5 mi East 18.4 mph 26.5 mph 0.00 in Rain Light Freezing Rain
9:53 AM 28.0 °F 14.3 °F 26.1 °F 92% 29.97 in 1.5 mi ESE 21.9 mph 29.9 mph 0.00 in Rain Light Freezing Rain
10:18 AM 28.4 °F 15.8 °F 26.6 °F 93% 29.88 in 2.0 mi East 18.4 mph 28.8 mph 0.00 in Rain Light Freezing Rain
10:31 AM 28.4 °F 15.1 °F 26.6 °F 93% 29.88 in 1.8 mi East 20.7 mph 28.8 mph 0.00 in Rain Light Freezing Rain
10:39 AM 28.4 °F 15.1 °F 26.6 °F 93% 29.88 in 2.0 mi ESE 20.7 mph 32.2 mph 0.00 in Rain Light Freezing Rain
10:51 AM 28.4 °F 15.4 °F 26.6 °F 93% 29.87 in 1.8 mi ESE 19.6 mph 26.5 mph 0.00 in Rain Light Freezing Rain
10:53 AM 28.9 °F 16.5 °F 27.0 °F 92% 29.96 in 1.8 mi ESE 18.4 mph 26.5 mph 0.00 in Rain Light Freezing Rain
11:31 AM 28.4 °F 15.1 °F 26.6 °F 93% 29.85 in 2.0 mi ESE 20.7 mph 27.6 mph 0.00 in Rain Light Freezing Rain
11:53 AM 28.0 °F 14.6 °F 27.0 °F 96% 29.93 in 3.0 mi ESE 20.7 mph - 0.00 in Rain Light Freezing Rain
12:21 PM 28.4 °F 15.4 °F 26.6 °F 93% 29.82 in 3.0 mi East 19.6 mph 27.6 mph 0.00 in   Overcast
12:53 PM 28.9 °F 16.1 °F 27.0 °F 92% 29.88 in 3.0 mi ESE 19.6 mph 29.9 mph 0.00 in   Overcast
1:06 PM 28.4 °F 15.1 °F 28.4 °F 100% 29.79 in 2.5 mi East 20.7 mph 27.6 mph N/A   Overcast
1:28 PM 28.4 °F 15.4 °F 28.4 °F 100% 29.79 in 3.0 mi ESE 19.6 mph 28.8 mph N/A   Overcast
1:35 PM 28.4 °F 15.8 °F 28.4 °F 100% 29.79 in 2.5 mi East 18.4 mph 26.5 mph N/A   Overcast
1:45 PM 28.4 °F 15.8 °F 28.4 °F 100% 29.80 in 3.0 mi ESE 18.4 mph 26.5 mph N/A   Overcast
1:53 PM 28.9 °F 16.5 °F 28.0 °F 96% 29.88 in 3.0 mi East 18.4 mph 27.6 mph N/A   Overcast
2:01 PM 28.4 °F 15.4 °F 28.4 °F 100% 29.79 in 2.5 mi East 19.6 mph 25.3 mph N/A   Overcast
2:18 PM 30.2 °F 18.5 °F 28.4 °F 93% 29.79 in 1.8 mi East 17.3 mph 27.6 mph N/A   Overcast
2:53 PM 30.0 °F 17.5 °F 28.0 °F 92% 29.88 in 1.5 mi East 19.6 mph 25.3 mph N/A   Overcast
3:53 PM 28.9 °F 17.3 °F 27.0 °F 92% 29.88 in 1.2 mi East 16.1 mph 24.2 mph N/A   Overcast
4:35 PM 28.4 °F 16.6 °F 26.6 °F 93% 29.79 in 2.0 mi East 16.1 mph 24.2 mph N/A   Overcast
4:53 PM 28.0 °F 16.5 °F 27.0 °F 96% 29.88 in 2.0 mi East 15.0 mph 24.2 mph N/A   Overcast
5:53 PM 28.0 °F 17.0 °F 26.1 °F 92% 29.90 in 1.8 mi East 13.8 mph 23.0 mph N/A   Overcast
6:14 PM 28.4 °F 18.0 °F 26.6 °F 93% 29.81 in 2.0 mi East 12.7 mph 20.7 mph N/A   Overcast
6:37 PM 28.4 °F 16.6 °F 26.6 °F 93% 29.80 in 1.8 mi East 16.1 mph - N/A   Overcast
6:53 PM 28.0 °F 16.5 °F 26.1 °F 92% 29.88 in 2.0 mi East 15.0 mph - N/A   Overcast
7:53 PM 28.0 °F 18.1 °F 26.1 °F 92% 29.88 in 2.5 mi East 11.5 mph - N/A   Overcast
8:14 PM 28.4 °F 17.5 °F 26.6 °F 93% 29.77 in 3.0 mi East 13.8 mph - N/A   Overcast
8:22 PM 28.4 °F 16.6 °F 26.6 °F 93% 29.77 in 2.5 mi East 16.1 mph - N/A   Overcast
8:53 PM 28.0 °F 17.0 °F 26.1 °F 92% 29.86 in 2.0 mi East 13.8 mph - N/A   Overcast
10:37 PM 28.4 °F 18.5 °F 26.6 °F 93% 29.74 in 3.0 mi ENE 11.5 mph - N/A   Overcast
10:53 PM 28.0 °F 20.0 °F 26.1 °F 92% 29.83 in 2.5 mi ENE 8.1 mph - N/A   Overcast
11:53 PM 28.0 °F 16.1 °F 26.1 °F 92% 29.80 in 2.5 mi ENE 16.1 mph - N/A   Overcast